Time,TemperatureF,DewpointF,PressureIn,WindDirection,WindDirectionDegrees,WindSpeedMPH,WindSpeedGustMPH,Humidity,HourlyPrecipIn,Conditions,Clouds,dailyrainin,SoftwareType,DateUTC
2013-06-29 00:01:00,76.0,74.0,29.90,South,169,5.0,8.0,95,1.80,,,-99.99,,2013-06-29 04:01:00,
2013-06-29 00:11:00,76.0,74.0,29.90,South,169,5.0,8.0,95,1.80,,,-99.99,,2013-06-29 04:11:00,
2013-06-29 00:32:00,76.0,74.0,29.89,South,170,6.0,8.0,94,1.80,,,-99.99,,2013-06-29 04:32:00,
2013-06-29 00:41:00,77.0,74.0,29.88,SE,139,4.0,6.0,90,1.80,,,-99.99,,2013-06-29 04:41:00,
2013-06-29 00:51:00,77.0,74.0,29.88,SE,139,4.0,6.0,90,1.80,,,-99.99,,2013-06-29 04:51:00,
2013-06-29 01:01:00,77.0,74.0,29.88,SE,139,4.0,6.0,90,1.80,,,-99.99,,2013-06-29 05:01:00,
2013-06-29 01:11:00,77.0,74.0,29.88,SSE,148,3.0,6.0,91,1.80,,,-99.99,,2013-06-29 05:11:00,
2013-06-29 01:21:00,77.0,74.0,29.88,SSE,148,3.0,6.0,91,1.80,,,-99.99,,2013-06-29 05:21:00,
2013-06-29 01:31:00,76.0,74.0,29.88,SSE,150,2.0,5.0,92,1.80,,,-99.99,,2013-06-29 05:31:00,
2013-06-29 01:41:00,76.0,74.0,29.88,SSE,150,2.0,5.0,92,1.80,,,-99.99,,2013-06-29 05:41:00,
2013-06-29 01:51:00,76.0,76.0,29.86,South,179,5.0,8.0,100,1.80,,,-99.99,,2013-06-29 05:51:00,
2013-06-29 02:01:00,76.0,76.0,29.86,SSW,194,6.0,9.0,100,1.80,,,-99.99,,2013-06-29 06:01:00,
2013-06-29 02:12:00,76.0,76.0,29.85,South,184,5.0,9.0,100,1.80,,,-99.99,,2013-06-29 06:12:00,
2013-06-29 02:22:00,76.0,76.0,29.85,SSW,194,6.0,9.0,100,1.80,,,-99.99,,2013-06-29 06:22:00,
2013-06-29 03:02:00,76.0,76.0,29.84,SSW,195,6.0,9.0,100,1.80,,,-99.99,,2013-06-29 07:02:00,
2013-06-29 03:33:00,76.0,76.0,29.85,South,191,6.0,9.0,100,1.80,,,-99.99,,2013-06-29 07:33:00,
2013-06-29 03:43:00,75.0,75.0,29.85,South,181,6.0,9.0,100,1.80,,,-99.99,,2013-06-29 07:43:00,
2013-06-29 03:53:00,75.0,75.0,29.85,SSW,200,6.0,9.0,100,1.80,,,-99.99,,2013-06-29 07:53:00,
2013-06-29 04:01:00,75.0,75.0,29.85,SSW,197,6.0,10.0,100,1.80,,,-99.99,,2013-06-29 08:01:00,
2013-06-29 04:12:00,75.0,75.0,29.85,South,190,6.0,8.0,100,1.80,,,-99.99,,2013-06-29 08:12:00,
2013-06-29 04:33:00,75.0,75.0,29.85,South,183,6.0,9.0,100,1.80,,,-99.99,,2013-06-29 08:33:00,
2013-06-29 04:43:00,75.0,75.0,29.85,SSW,204,6.0,8.0,100,1.80,,,-99.99,,2013-06-29 08:43:00,
2013-06-29 04:52:00,75.0,75.0,29.85,SSW,204,6.0,8.0,100,1.80,,,-99.99,,2013-06-29 08:52:00,
2013-06-29 05:02:00,75.0,75.0,29.85,SSW,198,6.0,9.0,100,1.80,,,-99.99,,2013-06-29 09:02:00,
2013-06-29 05:33:00,75.0,75.0,29.85,SSW,205,6.0,8.0,100,1.80,,,-99.99,,2013-06-29 09:33:00,
2013-06-29 05:42:00,75.0,75.0,29.86,SSW,204,6.0,10.0,100,1.80,,,-99.99,,2013-06-29 09:42:00,
2013-06-29 06:01:00,74.0,74.0,29.86,South,180,6.0,9.0,100,1.80,,,-99.99,,2013-06-29 10:01:00,
2013-06-29 06:11:00,74.0,74.0,29.86,South,190,8.0,11.0,100,1.80,,,-99.99,,2013-06-29 10:11:00,
2013-06-29 06:22:00,74.0,74.0,29.86,South,184,7.0,10.0,100,1.80,,,-99.99,,2013-06-29 10:22:00,
2013-06-29 06:33:00,74.0,74.0,29.87,South,183,7.0,11.0,100,1.80,,,-99.99,,2013-06-29 10:33:00,
2013-06-29 06:43:00,75.0,75.0,29.87,South,186,7.0,10.0,100,1.80,,,-99.99,,2013-06-29 10:43:00,
2013-06-29 06:52:00,75.0,75.0,29.87,South,186,7.0,10.0,100,1.80,,,-99.99,,2013-06-29 10:52:00,
2013-06-29 07:02:00,74.0,74.0,29.87,SSE,156,5.0,8.0,100,1.80,,,-99.99,,2013-06-29 11:02:00,
2013-06-29 07:11:00,74.0,74.0,29.86,South,180,7.0,11.0,100,1.80,,,-99.99,,2013-06-29 11:11:00,
2013-06-29 07:23:00,74.0,74.0,29.86,SSW,194,6.0,10.0,100,1.80,,,-99.99,,2013-06-29 11:23:00,
2013-06-29 07:33:00,75.0,75.0,29.87,South,181,6.0,10.0,100,1.80,,,-99.99,,2013-06-29 11:33:00,
2013-06-29 07:43:00,75.0,75.0,29.87,SSE,160,6.0,9.0,100,1.80,,,-99.99,,2013-06-29 11:43:00,
2013-06-29 07:53:00,76.0,76.0,29.87,South,188,7.0,10.0,100,1.80,,,-99.99,,2013-06-29 11:53:00,
2013-06-29 08:02:00,76.0,76.0,29.87,South,188,7.0,10.0,100,1.80,,,-99.99,,2013-06-29 12:02:00,
2013-06-29 08:43:00,78.0,76.0,29.88,SSW,197,6.0,11.0,95,1.80,,,-99.99,,2013-06-29 12:43:00,
2013-06-29 08:53:00,78.0,76.0,29.88,SSW,197,6.0,11.0,95,1.80,,,-99.99,,2013-06-29 12:53:00,
2013-06-29 09:43:00,82.0,75.0,29.87,SSW,194,9.0,13.0,80,1.80,,,-99.99,,2013-06-29 13:43:00,
2013-06-29 10:34:00,83.0,75.0,29.87,SW,232,8.0,14.0,78,1.80,,,-99.99,,2013-06-29 14:34:00,
2013-06-29 10:44:00,83.0,74.0,29.86,SW,229,10.0,15.0,74,1.80,,,-99.99,,2013-06-29 14:44:00,
2013-06-29 10:53:00,83.0,73.0,29.86,SW,219,10.0,14.0,72,1.80,,,-99.99,,2013-06-29 14:53:00,
2013-06-29 11:11:00,84.0,74.0,29.86,WSW,250,9.0,14.0,71,1.80,,,-99.99,,2013-06-29 15:11:00,
2013-06-29 11:22:00,85.0,74.0,29.86,WSW,256,8.0,13.0,70,1.80,,,-99.99,,2013-06-29 15:22:00,
2013-06-29 11:33:00,86.0,74.0,29.86,SW,214,9.0,14.0,68,1.80,,,-99.99,,2013-06-29 15:33:00,
2013-06-29 11:42:00,86.0,72.0,29.86,WSW,257,10.0,15.0,63,1.80,,,-99.99,,2013-06-29 15:42:00,
2013-06-29 11:53:00,87.0,73.0,29.86,WSW,243,10.0,15.0,63,1.80,,,-99.99,,2013-06-29 15:53:00,
2013-06-29 12:02:00,87.0,72.0,29.87,WSW,257,10.0,15.0,62,1.80,,,-99.99,,2013-06-29 16:02:00,
2013-06-29 12:12:00,88.0,75.0,29.87,WSW,257,9.0,16.0,65,1.80,,,-99.99,,2013-06-29 16:12:00,
2013-06-29 12:22:00,88.0,72.0,29.86,WSW,253,11.0,16.0,59,1.80,,,-99.99,,2013-06-29 16:22:00,
2013-06-29 12:33:00,88.0,72.0,29.86,WSW,243,10.0,16.0,60,1.80,,,-99.99,,2013-06-29 16:33:00,
2013-06-29 12:43:00,88.0,71.0,29.86,WSW,250,12.0,17.0,57,1.80,,,-99.99,,2013-06-29 16:43:00,
2013-06-29 12:53:00,88.0,71.0,29.86,WSW,243,10.0,14.0,57,1.80,,,-99.99,,2013-06-29 16:53:00,
2013-06-29 13:01:00,87.0,71.0,29.86,WSW,256,12.0,19.0,60,1.80,,,-99.99,,2013-06-29 17:01:00,
2013-06-29 13:12:00,85.0,71.0,29.86,West,266,8.0,12.0,64,1.80,,,-99.99,,2013-06-29 17:12:00,
2013-06-29 13:23:00,84.0,74.0,29.86,NW,304,8.0,12.0,72,1.80,,,-99.99,,2013-06-29 17:23:00,
2013-06-29 13:34:00,82.0,72.0,29.86,NW,311,13.0,23.0,71,1.80,,,-99.99,,2013-06-29 17:34:00,
2013-06-29 13:42:00,80.0,70.0,29.86,WNW,300,12.0,21.0,72,1.80,,,-99.99,,2013-06-29 17:42:00,
2013-06-29 13:52:00,81.0,72.0,29.86,NW,309,8.0,13.0,74,1.80,,,-99.99,,2013-06-29 17:52:00,
2013-06-29 14:01:00,82.0,71.0,29.85,NNW,338,7.0,10.0,69,1.80,,,-99.99,,2013-06-29 18:01:00,
2013-06-29 14:12:00,83.0,70.0,29.85,NW,323,4.0,9.0,66,1.80,,,-99.99,,2013-06-29 18:12:00,
2013-06-29 14:22:00,84.0,70.0,29.85,West,270,6.0,10.0,64,1.80,,,-99.99,,2013-06-29 18:22:00,
2013-06-29 14:34:00,86.0,72.0,29.85,West,267,8.0,13.0,63,1.80,,,-99.99,,2013-06-29 18:34:00,
2013-06-29 14:43:00,86.0,71.0,29.85,WSW,255,10.0,15.0,62,1.80,,,-99.99,,2013-06-29 18:43:00,
2013-06-29 14:52:00,86.0,72.0,29.85,WSW,243,13.0,16.0,63,1.80,,,-99.99,,2013-06-29 18:52:00,
2013-06-29 15:01:00,86.0,73.0,29.84,West,264,13.0,18.0,65,1.80,,,-99.99,,2013-06-29 19:01:00,
2013-06-29 15:12:00,85.0,72.0,29.84,West,281,12.0,17.0,65,1.80,,,-99.99,,2013-06-29 19:12:00,
2013-06-29 15:22:00,85.0,70.0,29.84,West,277,14.0,19.0,61,1.80,,,-99.99,,2013-06-29 19:22:00,
2013-06-29 15:34:00,85.0,70.0,29.83,West,281,13.0,17.0,61,1.80,,,-99.99,,2013-06-29 19:34:00,
2013-06-29 15:43:00,86.0,71.0,29.82,West,278,12.0,17.0,61,1.80,,,-99.99,,2013-06-29 19:43:00,
2013-06-29 15:54:00,86.0,70.0,29.82,West,273,11.0,16.0,60,1.80,,,-99.99,,2013-06-29 19:54:00,
2013-06-29 16:02:00,87.0,70.0,29.82,WSW,252,13.0,19.0,58,1.80,,,-99.99,,2013-06-29 20:02:00,
2013-06-29 16:12:00,88.0,70.0,29.83,WSW,246,13.0,19.0,55,1.80,,,-99.99,,2013-06-29 20:12:00,
2013-06-29 16:23:00,88.0,69.0,29.82,West,269,15.0,19.0,54,1.80,,,-99.99,,2013-06-29 20:23:00,
2013-06-29 16:33:00,87.0,70.0,29.82,West,280,13.0,18.0,57,1.80,,,-99.99,,2013-06-29 20:33:00,
2013-06-29 16:43:00,87.0,70.0,29.83,West,280,14.0,21.0,57,1.80,,,-99.99,,2013-06-29 20:43:00,
2013-06-29 16:52:00,80.0,70.0,29.83,West,278,21.0,34.0,72,1.80,,,-99.99,,2013-06-29 20:52:00,
2013-06-29 17:02:00,80.0,71.0,29.83,WNW,291,15.0,21.0,73,1.80,,,-99.99,,2013-06-29 21:02:00,
2013-06-29 17:11:00,80.0,71.0,29.83,West,263,9.0,14.0,75,1.80,,,-99.99,,2013-06-29 21:11:00,
2013-06-29 17:22:00,81.0,70.0,29.84,WSW,255,9.0,12.0,70,1.80,,,-99.99,,2013-06-29 21:22:00,
2013-06-29 17:32:00,81.0,70.0,29.84,WSW,243,7.0,9.0,70,1.80,,,-99.99,,2013-06-29 21:32:00,
2013-06-29 17:42:00,81.0,71.0,29.84,SW,222,6.0,8.0,71,1.80,,,-99.99,,2013-06-29 21:42:00,
2013-06-29 17:52:00,80.0,70.0,29.83,SW,215,6.0,10.0,71,1.80,,,-99.99,,2013-06-29 21:52:00,
2013-06-29 18:01:00,80.0,70.0,29.83,SW,235,7.0,9.0,72,1.80,,,-99.99,,2013-06-29 22:01:00,
2013-06-29 18:11:00,80.0,71.0,29.82,WSW,249,5.0,7.0,73,1.80,,,-99.99,,2013-06-29 22:11:00,
2013-06-29 18:21:00,80.0,71.0,29.82,SSW,211,5.0,7.0,74,1.80,,,-99.99,,2013-06-29 22:21:00,
2013-06-29 18:33:00,80.0,71.0,29.82,SSW,201,5.0,7.0,75,1.80,,,-99.99,,2013-06-29 22:33:00,
2013-06-29 18:43:00,79.0,70.0,29.82,South,169,6.0,8.0,75,1.80,,,-99.99,,2013-06-29 22:43:00,
2013-06-29 18:53:00,79.0,71.0,29.82,South,191,6.0,9.0,77,1.80,,,-99.99,,2013-06-29 22:53:00,
2013-06-29 19:02:00,78.0,71.0,29.82,SSW,195,7.0,9.0,78,1.80,,,-99.99,,2013-06-29 23:02:00,
2013-06-29 19:12:00,78.0,72.0,29.82,SSW,205,6.0,8.0,82,1.80,,,-99.99,,2013-06-29 23:12:00,
2013-06-29 19:23:00,78.0,72.0,29.82,SSW,208,7.0,10.0,82,1.80,,,-99.99,,2013-06-29 23:23:00,
2013-06-29 19:34:00,78.0,73.0,29.82,SSW,198,6.0,8.0,84,1.80,,,-99.99,,2013-06-29 23:34:00,
2013-06-29 19:43:00,77.0,72.0,29.83,SSW,207,4.0,6.0,86,1.80,,,-99.99,,2013-06-29 23:43:00,
2013-06-29 19:52:00,77.0,72.0,29.84,SSW,205,6.0,8.0,86,1.80,,,-99.99,,2013-06-29 23:52:00,
2013-06-29 20:02:00,77.0,72.0,29.84,South,169,6.0,10.0,86,1.80,,,-99.99,,2013-06-30 00:02:00,
2013-06-29 20:12:00,77.0,73.0,29.84,SSW,201,5.0,8.0,87,1.80,,,-99.99,,2013-06-30 00:12:00,
2013-06-29 20:22:00,77.0,73.0,29.84,South,188,4.0,7.0,87,1.80,,,-99.99,,2013-06-30 00:22:00,
2013-06-29 20:33:00,77.0,73.0,29.84,SW,221,5.0,8.0,87,1.80,,,-99.99,,2013-06-30 00:33:00,
2013-06-29 20:43:00,77.0,73.0,29.84,SSE,162,4.0,6.0,87,1.80,,,-99.99,,2013-06-30 00:43:00,
2013-06-29 20:52:00,77.0,73.0,29.85,SSE,166,4.0,6.0,88,1.80,,,-99.99,,2013-06-30 00:52:00,
2013-06-29 21:01:00,76.0,73.0,29.85,South,170,5.0,7.0,90,1.80,,,-99.99,,2013-06-30 01:01:00,
2013-06-29 21:11:00,76.0,74.0,29.86,SSE,167,3.0,6.0,92,1.80,,,-99.99,,2013-06-30 01:11:00,
2013-06-29 21:22:00,76.0,74.0,29.86,South,173,4.0,7.0,94,1.80,,,-99.99,,2013-06-30 01:22:00,
2013-06-29 21:33:00,76.0,74.0,29.86,SSE,166,4.0,6.0,95,1.80,,,-99.99,,2013-06-30 01:33:00,
2013-06-29 21:44:00,76.0,75.0,29.86,SSE,165,5.0,8.0,96,1.80,,,-99.99,,2013-06-30 01:44:00,
2013-06-29 21:53:00,76.0,75.0,29.86,SSE,152,4.0,7.0,96,1.80,,,-99.99,,2013-06-30 01:53:00,
2013-06-29 22:02:00,76.0,75.0,29.86,SSE,148,6.0,10.0,97,1.80,,,-99.99,,2013-06-30 02:02:00,
2013-06-29 22:11:00,76.0,75.0,29.86,SSE,158,6.0,9.0,96,1.80,,,-99.99,,2013-06-30 02:11:00,
2013-06-29 22:23:00,76.0,74.0,29.86,SSE,155,6.0,10.0,95,1.80,,,-99.99,,2013-06-30 02:23:00,
2013-06-29 22:34:00,76.0,74.0,29.86,SE,128,7.0,9.0,95,1.80,,,-99.99,,2013-06-30 02:34:00,
2013-06-29 22:43:00,76.0,74.0,29.86,SSE,159,6.0,9.0,95,1.80,,,-99.99,,2013-06-30 02:43:00,
2013-06-29 22:53:00,76.0,74.0,29.87,SSW,195,5.0,8.0,94,1.80,,,-99.99,,2013-06-30 02:53:00,
2013-06-29 23:01:00,76.0,74.0,29.86,South,188,6.0,9.0,92,1.80,,,-99.99,,2013-06-30 03:01:00,
2013-06-29 23:12:00,76.0,73.0,29.86,South,191,6.0,9.0,90,1.80,,,-99.99,,2013-06-30 03:12:00,
2013-06-29 23:23:00,76.0,73.0,29.86,South,169,5.0,8.0,90,1.80,,,-99.99,,2013-06-30 03:23:00,
2013-06-29 23:33:00,76.0,73.0,29.86,SSW,194,5.0,8.0,91,1.80,,,-99.99,,2013-06-30 03:33:00,
2013-06-29 23:43:00,76.0,73.0,29.86,SSW,194,5.0,7.0,91,1.80,,,-99.99,,2013-06-30 03:43:00,
2013-06-29 23:53:00,76.0,74.0,29.86,South,169,5.0,7.0,92,1.80,,,-99.99,,2013-06-30 03:53:00,